Weather History for Macomb, IL

Change the Weather History Date:

Tuesday, February 26, 2013

  Actual Average (KBRL) Record (KBRL)
Temperature  
Mean Temperature 32 °F 34 °F  
Max Temperature 34 °F 43 °F 69 °F (1996)
Min Temperature 30 °F 25 °F -11 °F (1950)
Degree Days  
Heating Degree Days 33 31  
Month to date heating degree days 915  
Since 1 July heating degree days 4316  
Cooling Degree Days 0 0  
Month to date cooling degree days 0  
Year to date cooling degree days 0  
Moisture  
Dew Point 31 °F    
Average Humidity 96    
Maximum Humidity 100    
Minimum Humidity 82    
Precipitation  
Precipitation 0.07 in 0.08 in 0.98 in (1997)
Month to date precipitation 1.47  
Year to date precipitation 2.71  
Sea Level Pressure  
Sea Level Pressure 29.60 in    
Wind  
Wind Speed 21 mph (NNE)    
Max Wind Speed 31 mph    
Max Gust Speed 38 mph    
Visibility 4 miles    
Events Rain , Snow    
T = Trace of Precipitation, MM = Missing Value Source: NWS Daily Summary

Daily Weather History Graph

Daily Weather History Graph

Search for Another Location

Airport:

Trip Planner

Search our weather history database for the weather conditions in past years. The results will help you decide how hot, cold, wet, or windy it might be!

Date:

Astronomy

Feb. 26, 2013 Rise Set
Actual Time 6:40 AM CST 5:50 PM CST
Civil Twilight 6:13 AM CST 6:18 PM CST
Nautical Twilight 5:41 AM CST 6:50 PM CST
Astronomical Twilight 5:09 AM CST 7:21 PM CST
Moon 7:08 PM CST (2/26) 6:42 AM CST (2/26)
Length of Visible Light 12h 05m
Length of Day
11h 10m
Full, 99% of the Moon is Illuminated
Feb 26
Full
Mar 4
Last Quarter
Mar 11
New
Mar 19
First Quarter
Mar 27
Full

Hourly Weather History & Observations

Time (CST) Temp. Windchill Dew Point Humidity Pressure Visibility Wind Dir Wind Speed Gust Speed Precip Events Conditions
12:15 AM 34.9 °F 24.2 °F 29.8 °F 82% 29.83 in 10.0 mi ENE 18.4 mph - N/A   Overcast
12:35 AM 34.7 °F 24.3 °F 30.0 °F 83% 29.83 in 10.0 mi East 17.3 mph 23.0 mph N/A   Overcast
12:55 AM 34.7 °F 23.7 °F 29.8 °F 82% 29.80 in 10.0 mi ENE 19.6 mph - N/A   Overcast
1:15 AM 34.7 °F 24.0 °F 29.8 °F 82% 29.79 in 10.0 mi ENE 18.4 mph - N/A   Overcast
1:35 AM 34.5 °F 23.8 °F 29.8 °F 83% 29.77 in 10.0 mi ENE 18.4 mph 24.2 mph N/A   Overcast
1:55 AM 34.7 °F 23.1 °F 29.7 °F 82% 29.75 in 10.0 mi ENE 21.9 mph 25.3 mph N/A   Overcast
2:15 AM 34.3 °F 24.2 °F 29.8 °F 84% 29.72 in 10.0 mi ENE 16.1 mph 24.2 mph N/A   Overcast
2:35 AM 34.2 °F 22.1 °F 29.8 °F 84% 29.69 in 10.0 mi NE 23.0 mph - N/A   Overcast
2:55 AM 34.2 °F 21.5 °F 29.7 °F 84% 29.67 in 10.0 mi NE 25.3 mph 29.9 mph N/A   Overcast
3:15 AM 34.0 °F 21.5 °F 29.7 °F 84% 29.66 in 10.0 mi ENE 24.2 mph 31.1 mph N/A   Overcast
3:35 AM 34.0 °F 21.0 °F 29.5 °F 84% 29.63 in 10.0 mi NE 26.5 mph 31.1 mph N/A   Overcast
3:55 AM 34.0 °F 22.7 °F 29.7 °F 84% 29.65 in 10.0 mi ENE 19.6 mph 27.6 mph N/A   Overcast
4:15 AM 33.8 °F 20.8 °F 29.8 °F 85% 29.62 in 10.0 mi NE 26.5 mph 29.9 mph N/A Snow Light Snow
4:35 AM 34.0 °F 20.5 °F 29.7 °F 84% 29.61 in 10.0 mi NE 28.8 mph 33.4 mph N/A   Overcast
4:55 AM 34.0 °F 21.3 °F 29.3 °F 83% 29.60 in 10.0 mi ENE 25.3 mph 33.4 mph N/A   Overcast
5:15 AM 33.1 °F 20.9 °F 30.6 °F 90% 29.61 in 4.0 mi ENE 21.9 mph 32.2 mph N/A Snow Light Snow
5:35 AM 33.8 °F 21.9 °F 29.8 °F 85% 29.60 in 7.0 mi ENE 21.9 mph 27.6 mph N/A Snow Light Snow
5:55 AM 32.7 °F 19.6 °F 31.1 °F 94% 29.59 in 1.5 mi ENE 25.3 mph 32.2 mph N/A Snow Light Snow
6:15 AM 32.0 °F 18.9 °F 31.8 °F 99% 29.58 in 0.5 mi NE 24.2 mph 32.2 mph N/A Snow Snow
6:35 AM 32.0 °F 17.6 °F 32.0 °F 100% 29.57 in 0.2 mi NE 29.9 mph 35.7 mph N/A Snow Heavy Snow
6:55 AM 32.0 °F 17.4 °F 32.0 °F 100% 29.57 in 0.2 mi NE 31.1 mph 38.0 mph N/A Snow Snow
7:15 AM 32.0 °F 18.1 °F 32.0 °F 100% 29.57 in 0.2 mi NE 27.6 mph 34.5 mph N/A Snow Snow
7:35 AM 32.0 °F 17.6 °F 32.0 °F 100% 29.55 in 0.2 mi NE 29.9 mph 36.8 mph N/A Snow Snow
7:55 AM 32.0 °F 17.9 °F 32.0 °F 100% 29.56 in 0.2 mi NE 28.8 mph 34.5 mph 0.01 in Snow Heavy Snow
8:15 AM 32.0 °F 17.6 °F 32.0 °F 100% 29.54 in 0.2 mi NE 29.9 mph 36.8 mph N/A Snow Snow
8:35 AM 32.0 °F 18.4 °F 32.0 °F 100% 29.54 in 0.8 mi NE 26.5 mph 36.8 mph 0.01 in Snow Light Snow
8:55 AM 32.0 °F 19.5 °F 32.0 °F 100% 29.55 in 3.0 mi NE 21.9 mph 27.6 mph 0.02 in Rain Light Rain
9:15 AM 32.0 °F 18.9 °F 32.0 °F 100% 29.55 in 1.2 mi NE 24.2 mph 28.8 mph 0.01 in Snow Light Snow
9:35 AM 32.0 °F 19.2 °F 32.0 °F 100% 29.53 in 0.8 mi NE 23.0 mph 29.9 mph 0.02 in Snow Light Snow
9:55 AM 32.2 °F 19.4 °F 32.0 °F 99% 29.53 in 1.8 mi NE 23.0 mph 29.9 mph 0.03 in Snow Light Snow
10:15 AM 32.0 °F 19.2 °F 32.0 °F 100% 29.53 in 2.5 mi NE 23.0 mph 26.5 mph N/A   Overcast
10:35 AM 32.0 °F 19.8 °F 32.0 °F 100% 29.53 in 3.0 mi NE 20.7 mph 26.5 mph N/A   Overcast
10:55 AM 32.0 °F 19.2 °F 32.0 °F 100% 29.53 in 1.0 mi NE 23.0 mph - N/A Snow Light Snow
11:15 AM 32.4 °F 20.3 °F 32.4 °F 100% 29.52 in 1.8 mi NE 20.7 mph - N/A Rain Light Rain
11:35 AM 32.5 °F 20.2 °F 32.5 °F 100% 29.53 in 2.0 mi NE 21.9 mph 28.8 mph N/A   Overcast
11:55 AM 32.2 °F 20.0 °F 32.2 °F 100% 29.52 in 1.2 mi NE 20.7 mph - N/A Snow Light Snow
12:15 PM 32.2 °F 19.7 °F 32.2 °F 100% 29.52 in 1.5 mi NE 21.9 mph - 0.01 in Snow Light Snow
12:35 PM 32.0 °F 19.8 °F 32.0 °F 100% 29.52 in 2.5 mi NE 20.7 mph 28.8 mph 0.01 in   Overcast
12:55 PM 32.2 °F 21.4 °F 32.2 °F 100% 29.51 in 2.5 mi NE 16.1 mph - 0.01 in   Overcast
1:15 PM 32.0 °F 20.1 °F 32.0 °F 100% 29.50 in 1.5 mi NNE 19.6 mph - N/A   Overcast
1:35 PM 32.0 °F 19.8 °F 32.0 °F 100% 29.50 in 1.0 mi NE 20.7 mph 27.6 mph N/A Snow Light Snow
1:55 PM 32.0 °F 19.8 °F 32.0 °F 100% 29.51 in 1.0 mi NE 20.7 mph 24.2 mph N/A Snow Light Snow
2:15 PM 32.0 °F 19.8 °F 32.0 °F 100% 29.51 in 1.0 mi NE 20.7 mph 25.3 mph N/A Snow Light Snow
2:35 PM 32.0 °F 19.8 °F 32.0 °F 100% 29.51 in 1.2 mi NE 20.7 mph 26.5 mph N/A Snow Light Snow
2:55 PM 32.0 °F 20.1 °F 32.0 °F 100% 29.52 in 1.5 mi NNE 19.6 mph - N/A Snow Light Snow
3:15 PM 32.0 °F 20.5 °F 32.0 °F 100% 29.52 in 2.0 mi NNE 18.4 mph - N/A Snow Light Snow
3:35 PM 32.0 °F 20.1 °F 32.0 °F 100% 29.53 in 1.8 mi NNE 19.6 mph 26.5 mph N/A Snow Light Snow
3:55 PM 32.0 °F 20.8 °F 32.0 °F 100% 29.53 in 1.8 mi North 17.3 mph 23.0 mph N/A Snow Light Snow
4:15 PM 32.0 °F 20.1 °F 32.0 °F 100% 29.54 in 1.2 mi North 19.6 mph - N/A Snow Light Snow
4:35 PM 31.6 °F 19.7 °F 31.6 °F 100% 29.55 in 1.5 mi North 19.6 mph - N/A Snow Light Snow
4:55 PM 31.5 °F 19.4 °F 31.5 °F 100% 29.55 in 1.5 mi NNE 19.6 mph 24.2 mph N/A Snow Light Snow
5:15 PM 31.1 °F 18.9 °F 31.1 °F 100% 29.56 in 4.0 mi NNE 19.6 mph - N/A   Overcast
5:35 PM 31.3 °F 18.5 °F 31.3 °F 100% 29.56 in 10.0 mi NNE 21.9 mph 26.5 mph N/A   Overcast
5:55 PM 31.3 °F 17.9 °F 31.3 °F 100% 29.57 in 5.0 mi NNE 24.2 mph - N/A   Overcast
6:15 PM 31.5 °F 20.5 °F 31.5 °F 100% 29.58 in 3.0 mi North 16.1 mph 21.9 mph N/A Snow Light Snow
6:35 PM 31.5 °F 20.9 °F 31.5 °F 100% 29.59 in 3.0 mi North 15.0 mph - N/A Snow Light Snow
6:55 PM 31.3 °F 19.9 °F 31.3 °F 100% 29.59 in 4.0 mi North 17.3 mph 21.9 mph N/A Snow Light Snow
7:15 PM 30.9 °F 19.4 °F 30.9 °F 100% 29.60 in 3.0 mi North 17.3 mph 23.0 mph N/A   Overcast
7:35 PM 30.9 °F 20.2 °F 30.9 °F 100% 29.61 in 3.0 mi North 15.0 mph - N/A Snow Light Snow
7:55 PM 30.7 °F 20.0 °F 30.7 °F 100% 29.61 in 2.0 mi North 15.0 mph - N/A Snow Light Snow
8:15 PM 30.7 °F 20.4 °F 30.7 °F 100% 29.62 in 1.5 mi North 13.8 mph - N/A Snow Light Snow
8:35 PM 30.9 °F 20.2 °F 30.9 °F 100% 29.62 in 1.8 mi North 15.0 mph - N/A Snow Light Snow
8:55 PM 30.9 °F 21.2 °F 30.9 °F 100% 29.62 in 1.2 mi NNW 12.7 mph - N/A Snow Light Snow
9:15 PM 30.7 °F 20.4 °F 30.7 °F 100% 29.63 in 1.2 mi NNW 13.8 mph - N/A Snow Light Snow
9:35 PM 30.7 °F 20.4 °F 30.7 °F 100% 29.63 in 1.8 mi NNW 13.8 mph - N/A Snow Light Snow
9:55 PM 30.7 °F 20.4 °F 30.7 °F 100% 29.63 in 2.0 mi NNW 13.8 mph - N/A Snow Light Snow
10:15 PM 30.7 °F 20.0 °F 30.7 °F 100% 29.63 in 2.5 mi NNW 15.0 mph - N/A Snow Light Snow
10:35 PM 30.2 °F 19.3 °F 30.2 °F 100% 29.63 in 3.0 mi NNW 15.0 mph - N/A Snow Light Snow
10:55 PM 30.7 °F 19.2 °F 30.7 °F 100% 29.63 in 4.0 mi NNW 17.3 mph - N/A   Overcast
11:15 PM 30.9 °F 19.4 °F 30.9 °F 100% 29.63 in 5.0 mi NNW 17.3 mph - N/A   Overcast
11:35 PM 30.9 °F 19.8 °F 30.9 °F 100% 29.63 in 7.0 mi NNW 16.1 mph 21.9 mph N/A   Overcast
11:55 PM 31.1 °F 19.7 °F 31.1 °F 100% 29.63 in 10.0 mi NNW 17.3 mph - N/A   Overcast